Time,TemperatureF,DewpointF,PressureIn,WindDirection,WindDirectionDegrees,WindSpeedMPH,WindSpeedGustMPH,Humidity,HourlyPrecipIn,Conditions,Clouds,dailyrainin,SoftwareType,DateUTC
2013-05-04 00:02:00,36.4,6.1,30.13,SE,135,1.3,1.8,28,0.00,,,0.00,WUHU216HW,2013-05-04 07:02:00,
2013-05-04 00:07:00,36.2,6.9,30.13,South,180,0.4,1.8,29,0.00,,,0.00,WUHU216HW,2013-05-04 07:07:00,
2013-05-04 00:12:00,36.0,7.6,30.13,South,180,1.3,4.0,30,0.00,,,0.00,WUHU216HW,2013-05-04 07:12:00,
2013-05-04 00:17:00,36.0,7.6,30.13,SW,225,0.2,4.0,30,0.00,,,0.00,WUHU216HW,2013-05-04 07:17:00,
2013-05-04 00:22:00,35.8,7.4,30.12,South,180,2.5,2.5,30,0.00,,,0.00,WUHU216HW,2013-05-04 07:22:00,
2013-05-04 00:27:00,35.6,7.8,30.12,WSW,248,1.6,4.0,31,0.00,,,0.00,WUHU216HW,2013-05-04 07:27:00,
2013-05-04 00:32:00,35.8,8.0,30.12,West,270,2.2,4.0,31,0.00,,,0.00,WUHU216HW,2013-05-04 07:32:00,
2013-05-04 00:37:00,36.4,9.2,30.12,SW,225,3.1,5.1,32,0.00,,,0.00,WUHU216HW,2013-05-04 07:37:00,
2013-05-04 00:42:00,37.3,10.6,30.12,WSW,248,4.0,6.9,33,0.00,,,0.00,WUHU216HW,2013-05-04 07:42:00,
2013-05-04 00:47:00,38.9,12.1,30.12,West,270,5.6,7.8,33,0.00,,,0.00,WUHU216HW,2013-05-04 07:47:00,
2013-05-04 00:52:00,40.1,12.5,30.11,WSW,248,6.7,7.8,32,0.00,,,0.00,WUHU216HW,2013-05-04 07:52:00,
2013-05-04 00:57:00,41.0,12.7,30.11,WSW,248,4.0,8.3,31,0.00,,,0.00,WUHU216HW,2013-05-04 07:57:00,
2013-05-04 01:02:00,41.4,12.3,30.11,WSW,248,3.8,8.3,30,0.00,,,0.00,WUHU216HW,2013-05-04 08:02:00,
2013-05-04 01:07:00,41.4,12.3,30.11,WSW,248,3.1,7.4,30,0.00,,,0.00,WUHU216HW,2013-05-04 08:07:00,
2013-05-04 01:12:00,41.4,12.3,30.11,SSW,203,1.8,5.8,30,0.00,,,0.00,WUHU216HW,2013-05-04 08:12:00,
2013-05-04 01:17:00,40.9,11.0,30.11,South,180,1.8,3.4,29,0.00,,,0.00,WUHU216HW,2013-05-04 08:17:00,
2013-05-04 01:22:00,40.3,10.5,30.11,SSE,158,1.6,2.9,29,0.00,,,0.00,WUHU216HW,2013-05-04 08:22:00,
2013-05-04 01:27:00,39.8,10.0,30.11,SSE,158,0.4,2.2,29,0.00,,,0.00,WUHU216HW,2013-05-04 08:27:00,
2013-05-04 01:32:00,39.2,10.4,30.11,SSW,203,0.4,2.2,30,0.00,,,0.00,WUHU216HW,2013-05-04 08:32:00,
2013-05-04 01:37:00,38.7,10.0,30.11,South,180,1.1,1.3,30,0.00,,,0.00,WUHU216HW,2013-05-04 08:37:00,
2013-05-04 01:42:00,38.2,9.5,30.11,SSW,203,2.5,2.5,30,0.00,,,0.00,WUHU216HW,2013-05-04 08:42:00,
2013-05-04 01:47:00,37.8,9.2,30.11,South,180,1.1,2.5,30,0.00,,,0.00,WUHU216HW,2013-05-04 08:47:00,
2013-05-04 01:52:00,37.4,9.5,30.11,South,180,1.8,2.5,31,0.00,,,0.00,WUHU216HW,2013-05-04 08:52:00,
2013-05-04 01:57:00,37.1,9.2,30.10,South,180,0.9,2.5,31,0.00,,,0.00,WUHU216HW,2013-05-04 08:57:00,
2013-05-04 02:02:00,36.7,8.8,30.10,South,180,1.3,2.0,31,0.00,,,0.00,WUHU216HW,2013-05-04 09:02:00,
2013-05-04 02:07:00,36.4,8.5,30.10,South,180,1.1,2.5,31,0.00,,,0.00,WUHU216HW,2013-05-04 09:07:00,
2013-05-04 02:12:00,36.2,8.4,30.10,South,180,0.7,2.5,31,0.00,,,0.00,WUHU216HW,2013-05-04 09:12:00,
2013-05-04 02:17:00,35.8,8.6,30.10,South,180,1.1,2.0,32,0.00,,,0.00,WUHU216HW,2013-05-04 09:17:00,
2013-05-04 02:22:00,35.6,8.5,30.10,South,180,1.8,2.0,32,0.00,,,0.00,WUHU216HW,2013-05-04 09:22:00,
2013-05-04 02:27:00,35.5,8.4,30.10,South,180,1.3,2.5,32,0.00,,,0.00,WUHU216HW,2013-05-04 09:27:00,
2013-05-04 02:32:00,35.1,8.7,30.10,South,180,1.1,2.5,33,0.00,,,0.00,WUHU216HW,2013-05-04 09:32:00,
2013-05-04 02:37:00,34.9,8.6,30.10,WSW,248,0.2,1.8,33,0.00,,,0.00,WUHU216HW,2013-05-04 09:37:00,
2013-05-04 02:42:00,34.9,8.6,30.10,WNW,293,0.0,1.1,33,0.00,,,0.00,WUHU216HW,2013-05-04 09:42:00,
2013-05-04 02:47:00,34.7,8.4,30.10,South,180,0.0,0.9,33,0.00,,,0.00,WUHU216HW,2013-05-04 09:47:00,
2013-05-04 02:52:00,34.6,8.3,30.09,NW,315,1.1,2.2,33,0.00,,,0.00,WUHU216HW,2013-05-04 09:52:00,
2013-05-04 02:57:00,34.4,8.7,30.09,West,270,1.1,2.2,34,0.00,,,0.00,WUHU216HW,2013-05-04 09:57:00,
2013-05-04 03:02:00,34.2,9.2,30.09,WNW,293,0.2,2.0,35,0.00,,,0.00,WUHU216HW,2013-05-04 10:02:00,
2013-05-04 03:07:00,34.0,9.1,30.09,NW,315,0.2,1.1,35,0.00,,,0.00,WUHU216HW,2013-05-04 10:07:00,
2013-05-04 03:12:00,34.0,9.7,30.09,SSW,203,0.7,1.1,36,0.00,,,0.00,WUHU216HW,2013-05-04 10:12:00,
2013-05-04 03:17:00,33.8,9.5,30.09,South,180,2.5,2.5,36,0.00,,,0.00,WUHU216HW,2013-05-04 10:17:00,
2013-05-04 03:22:00,33.7,9.4,30.09,SSE,158,0.2,2.5,36,0.00,,,0.00,WUHU216HW,2013-05-04 10:22:00,
2013-05-04 03:27:00,33.5,8.6,30.09,South,180,0.0,2.5,35,0.00,,,0.00,WUHU216HW,2013-05-04 10:27:00,
2013-05-04 03:32:00,33.5,8.6,30.09,South,180,1.8,1.8,35,0.00,,,0.00,WUHU216HW,2013-05-04 10:32:00,
2013-05-04 03:37:00,33.3,9.1,30.09,SSE,158,0.9,2.0,36,0.00,,,0.00,WUHU216HW,2013-05-04 10:37:00,
2013-05-04 03:42:00,33.1,8.9,30.09,SSE,158,0.4,2.0,36,0.00,,,0.00,WUHU216HW,2013-05-04 10:42:00,
2013-05-04 03:47:00,33.1,8.9,30.09,South,180,0.0,0.7,36,0.00,,,0.00,WUHU216HW,2013-05-04 10:47:00,
2013-05-04 03:52:00,32.9,8.7,30.08,South,180,0.0,1.6,36,0.00,,,0.00,WUHU216HW,2013-05-04 10:52:00,
2013-05-04 03:57:00,32.8,8.6,30.09,South,180,0.7,1.6,36,0.00,,,0.00,WUHU216HW,2013-05-04 10:57:00,
2013-05-04 04:02:00,32.8,8.6,30.09,SSE,158,0.0,0.9,36,0.00,,,0.00,WUHU216HW,2013-05-04 11:02:00,
2013-05-04 04:07:00,32.6,8.4,30.09,SSE,158,0.0,0.9,36,0.00,,,0.00,WUHU216HW,2013-05-04 11:07:00,
2013-05-04 04:12:00,32.4,8.3,30.08,South,180,0.9,0.9,36,0.00,,,0.00,WUHU216HW,2013-05-04 11:12:00,
2013-05-04 04:17:00,32.2,8.7,30.08,South,180,2.0,2.5,37,0.00,,,0.00,WUHU216HW,2013-05-04 11:17:00,
2013-05-04 04:22:00,32.0,8.6,30.08,SSE,158,1.1,2.5,37,0.00,,,0.00,WUHU216HW,2013-05-04 11:22:00,
2013-05-04 04:27:00,31.9,8.4,30.08,SSE,158,0.4,2.5,37,0.00,,,0.00,WUHU216HW,2013-05-04 11:27:00,
2013-05-04 04:32:00,31.7,8.2,30.08,SSE,158,0.0,1.1,37,0.00,,,0.00,WUHU216HW,2013-05-04 11:32:00,
2013-05-04 04:37:00,31.5,8.1,30.08,South,180,0.0,0.9,37,0.00,,,0.00,WUHU216HW,2013-05-04 11:37:00,
2013-05-04 04:42:00,31.3,7.9,30.08,South,180,0.0,0.7,37,0.00,,,0.00,WUHU216HW,2013-05-04 11:42:00,
2013-05-04 04:47:00,31.1,7.7,30.08,SSW,203,0.0,0.7,37,0.00,,,0.00,WUHU216HW,2013-05-04 11:47:00,
2013-05-04 04:52:00,31.0,7.6,30.08,South,180,0.7,1.1,37,0.00,,,0.00,WUHU216HW,2013-05-04 11:52:00,
2013-05-04 04:57:00,30.8,7.4,30.08,SE,135,0.0,1.8,37,0.00,,,0.00,WUHU216HW,2013-05-04 11:57:00,
2013-05-04 05:02:00,30.6,7.3,30.08,SE,135,0.0,1.8,37,0.00,,,0.00,WUHU216HW,2013-05-04 12:02:00,
2013-05-04 05:07:00,30.6,7.3,30.08,SSE,158,0.0,0.7,37,0.00,,,0.00,WUHU216HW,2013-05-04 12:07:00,
2013-05-04 05:12:00,30.4,7.1,30.08,SSE,158,0.4,0.7,37,0.00,,,0.00,WUHU216HW,2013-05-04 12:12:00,
2013-05-04 05:17:00,30.2,6.9,30.08,SSE,158,0.0,0.7,37,0.00,,,0.00,WUHU216HW,2013-05-04 12:17:00,
2013-05-04 05:22:00,30.1,7.4,30.07,South,180,0.0,0.7,38,0.00,,,0.00,WUHU216HW,2013-05-04 12:22:00,
2013-05-04 05:28:00,29.9,7.2,30.08,South,180,0.0,0.4,38,0.00,,,0.00,WUHU216HW,2013-05-04 12:28:00,
2013-05-04 05:33:00,29.9,7.2,30.08,South,180,0.9,1.1,38,0.00,,,0.00,WUHU216HW,2013-05-04 12:33:00,
2013-05-04 05:38:00,29.9,7.2,30.08,South,180,0.2,1.1,38,0.00,,,0.00,WUHU216HW,2013-05-04 12:38:00,
2013-05-04 05:43:00,29.9,7.2,30.08,SSE,158,0.0,1.1,38,0.00,,,0.00,WUHU216HW,2013-05-04 12:43:00,
2013-05-04 05:48:00,29.7,7.1,30.08,SSW,203,0.0,1.1,38,0.00,,,0.00,WUHU216HW,2013-05-04 12:48:00,
2013-05-04 05:53:00,29.7,7.8,30.08,South,180,0.0,0.0,39,0.00,,,0.00,WUHU216HW,2013-05-04 12:53:00,
2013-05-04 05:58:00,29.5,7.6,30.08,South,180,0.0,0.0,39,0.00,,,0.00,WUHU216HW,2013-05-04 12:58:00,
2013-05-04 06:03:00,29.5,7.6,30.07,SSE,158,0.0,0.0,39,0.00,,,0.00,WUHU216HW,2013-05-04 13:03:00,
2013-05-04 06:08:00,29.5,7.6,30.08,South,180,0.0,0.4,39,0.00,,,0.00,WUHU216HW,2013-05-04 13:08:00,
2013-05-04 06:13:00,29.3,8.0,30.08,South,180,0.0,0.4,40,0.00,,,0.00,WUHU216HW,2013-05-04 13:13:00,
2013-05-04 06:18:00,29.5,8.2,30.08,SSE,158,0.0,1.1,40,0.00,,,0.00,WUHU216HW,2013-05-04 13:18:00,
2013-05-04 06:23:00,29.7,8.4,30.08,SE,135,0.0,1.1,40,0.00,,,0.00,WUHU216HW,2013-05-04 13:23:00,
2013-05-04 06:28:00,29.9,9.0,30.08,ESE,113,0.0,0.2,41,0.00,,,0.00,WUHU216HW,2013-05-04 13:28:00,
2013-05-04 06:33:00,30.2,9.4,30.08,ESE,113,0.0,0.2,41,0.00,,,0.00,WUHU216HW,2013-05-04 13:33:00,
2013-05-04 06:38:00,30.6,9.6,30.08,ESE,113,0.0,0.0,41,0.00,,,0.00,WUHU216HW,2013-05-04 13:38:00,
2013-05-04 06:43:00,31.0,10.0,30.08,ESE,113,0.0,1.1,41,0.00,,,0.00,WUHU216HW,2013-05-04 13:43:00,
2013-05-04 06:48:00,31.7,10.6,30.08,East,90,0.0,1.3,41,0.00,,,0.00,WUHU216HW,2013-05-04 13:48:00,
2013-05-04 06:53:00,32.4,11.3,30.08,East,90,0.4,1.8,41,0.00,,,0.00,WUHU216HW,2013-05-04 13:53:00,
2013-05-04 06:58:00,33.5,12.2,30.08,ESE,113,0.2,1.8,41,0.00,,,0.00,WUHU216HW,2013-05-04 13:58:00,
2013-05-04 07:03:00,34.9,13.6,30.08,WNW,293,0.7,1.8,41,0.00,,,0.00,WUHU216HW,2013-05-04 14:03:00,
2013-05-04 07:08:00,36.7,14.7,30.08,West,270,2.7,4.3,40,0.00,,,0.00,WUHU216HW,2013-05-04 14:08:00,
2013-05-04 07:13:00,38.3,14.9,30.08,SW,225,4.0,5.8,38,0.00,,,0.00,WUHU216HW,2013-05-04 14:13:00,
2013-05-04 07:18:00,40.0,15.7,30.08,SW,225,4.7,5.8,37,0.00,,,0.00,WUHU216HW,2013-05-04 14:18:00,
2013-05-04 07:23:00,41.0,15.3,30.08,WSW,248,4.9,6.5,35,0.00,,,0.00,WUHU216HW,2013-05-04 14:23:00,
2013-05-04 07:28:00,42.3,15.8,30.08,WSW,248,3.1,6.7,34,0.00,,,0.00,WUHU216HW,2013-05-04 14:28:00,
2013-05-04 07:33:00,43.9,16.5,30.08,SW,225,5.6,6.7,33,0.00,,,0.00,WUHU216HW,2013-05-04 14:33:00,
2013-05-04 07:38:00,45.2,16.9,30.08,West,270,6.3,6.9,32,0.00,,,0.00,WUHU216HW,2013-05-04 14:38:00,
2013-05-04 07:43:00,46.4,17.4,30.08,WSW,248,2.5,6.9,31,0.00,,,0.00,WUHU216HW,2013-05-04 14:43:00,
2013-05-04 07:48:00,47.3,17.6,30.07,WSW,248,3.4,6.9,30,0.00,,,0.00,WUHU216HW,2013-05-04 14:48:00,
2013-05-04 07:53:00,48.2,18.4,30.08,WSW,248,2.5,5.6,30,0.00,,,0.00,WUHU216HW,2013-05-04 14:53:00,
2013-05-04 07:58:00,49.3,18.3,30.08,WSW,248,2.5,7.8,29,0.00,,,0.00,WUHU216HW,2013-05-04 14:58:00,
2013-05-04 08:03:00,50.6,18.5,30.08,SW,225,1.1,7.8,28,0.00,,,0.00,WUHU216HW,2013-05-04 15:03:00,
2013-05-04 08:08:00,52.2,18.9,30.08,West,270,5.4,5.8,27,0.00,,,0.00,WUHU216HW,2013-05-04 15:08:00,
2013-05-04 08:13:00,53.6,18.3,30.08,WNW,293,2.7,5.8,25,0.00,,,0.00,WUHU216HW,2013-05-04 15:13:00,
2013-05-04 08:18:00,55.1,18.5,30.07,SW,225,4.9,7.6,24,0.00,,,0.00,WUHU216HW,2013-05-04 15:18:00,
2013-05-04 08:23:00,56.5,18.8,30.07,SSE,158,5.8,7.8,23,0.00,,,0.00,WUHU216HW,2013-05-04 15:23:00,
2013-05-04 08:28:00,57.4,19.5,30.07,SSW,203,2.7,7.8,23,0.00,,,0.00,WUHU216HW,2013-05-04 15:28:00,
2013-05-04 08:33:00,58.5,19.5,30.07,WNW,293,4.3,6.9,22,0.00,,,0.00,WUHU216HW,2013-05-04 15:33:00,
2013-05-04 08:38:00,59.6,20.4,30.07,WSW,248,3.4,5.8,22,0.00,,,0.00,WUHU216HW,2013-05-04 15:38:00,
2013-05-04 08:43:00,60.8,20.6,30.07,WSW,248,5.8,7.2,21,0.00,,,0.00,WUHU216HW,2013-05-04 15:43:00,
2013-05-04 08:48:00,62.1,21.6,30.07,WSW,248,2.5,7.6,21,0.00,,,0.00,WUHU216HW,2013-05-04 15:48:00,
2013-05-04 08:53:00,63.2,19.9,30.07,West,270,6.3,8.7,19,0.00,,,0.00,WUHU216HW,2013-05-04 15:53:00,
2013-05-04 08:58:00,63.9,18.9,30.07,WNW,293,5.8,8.7,18,0.00,,,0.00,WUHU216HW,2013-05-04 15:58:00,
2013-05-04 09:03:00,64.8,18.0,30.07,West,270,4.3,7.6,17,0.00,,,0.00,WUHU216HW,2013-05-04 16:03:00,
2013-05-04 09:08:00,65.3,16.9,30.07,WNW,293,5.1,8.5,16,0.00,,,0.00,WUHU216HW,2013-05-04 16:08:00,
2013-05-04 09:13:00,65.9,17.3,30.07,West,270,4.9,8.5,16,0.00,,,0.00,WUHU216HW,2013-05-04 16:13:00,
2013-05-04 09:18:00,66.8,16.5,30.07,West,270,4.0,7.8,15,0.00,,,0.00,WUHU216HW,2013-05-04 16:18:00,
2013-05-04 09:23:00,67.7,18.8,30.07,West,270,2.9,7.8,16,0.00,,,0.00,WUHU216HW,2013-05-04 16:23:00,
2013-05-04 09:28:00,68.0,14.3,30.07,NW,315,4.9,7.2,13,0.00,,,0.00,WUHU216HW,2013-05-04 16:28:00,
2013-05-04 09:33:00,68.8,18.1,30.07,WSW,248,4.9,10.5,15,0.00,,,0.00,WUHU216HW,2013-05-04 16:33:00,
2013-05-04 09:38:00,69.1,15.1,30.07,NNE,23,1.3,10.5,13,0.00,,,0.00,WUHU216HW,2013-05-04 16:38:00,
2013-05-04 09:43:00,69.3,15.3,30.07,WSW,248,5.8,9.8,13,0.00,,,0.00,WUHU216HW,2013-05-04 16:43:00,
2013-05-04 09:48:00,69.7,14.0,30.07,West,270,4.9,9.8,12,0.00,,,0.00,WUHU216HW,2013-05-04 16:48:00,
2013-05-04 09:53:00,70.0,14.2,30.07,West,270,4.7,8.5,12,0.00,,,0.00,WUHU216HW,2013-05-04 16:53:00,
2013-05-04 09:58:00,70.4,14.5,30.07,WSW,248,3.6,9.8,12,0.00,,,0.00,WUHU216HW,2013-05-04 16:58:00,
2013-05-04 10:03:00,70.7,14.8,30.07,WNW,293,7.6,9.8,12,0.00,,,0.00,WUHU216HW,2013-05-04 17:03:00,
2013-05-04 10:08:00,71.6,15.5,30.07,WNW,293,1.6,7.6,12,0.00,,,0.00,WUHU216HW,2013-05-04 17:08:00,
2013-05-04 10:13:00,72.2,14.3,30.07,WNW,293,5.1,6.5,11,0.00,,,0.00,WUHU216HW,2013-05-04 17:13:00,
2013-05-04 10:18:00,72.7,14.8,30.06,SW,225,4.7,7.8,11,0.00,,,0.00,WUHU216HW,2013-05-04 17:18:00,
2013-05-04 10:24:00,73.3,15.2,30.06,WSW,248,4.5,7.8,11,0.00,,,0.00,WUHU216HW,2013-05-04 17:24:00,
2013-05-04 10:29:00,73.6,15.5,30.07,North,0,2.5,7.6,11,0.00,,,0.00,WUHU216HW,2013-05-04 17:29:00,
2013-05-04 10:34:00,73.6,13.8,30.06,SSE,158,1.8,8.1,10,0.00,,,0.00,WUHU216HW,2013-05-04 17:34:00,
2013-05-04 10:39:00,74.0,15.7,30.06,SSW,203,5.8,8.1,11,0.00,,,0.00,WUHU216HW,2013-05-04 17:39:00,
2013-05-04 10:44:00,74.3,14.3,30.06,SW,225,1.8,9.4,10,0.00,,,0.00,WUHU216HW,2013-05-04 17:44:00,
2013-05-04 10:49:00,74.5,14.4,30.06,NW,315,4.5,9.4,10,0.00,,,0.00,WUHU216HW,2013-05-04 17:49:00,
2013-05-04 10:54:00,74.5,14.4,30.06,WNW,293,3.1,7.6,10,0.00,,,0.00,WUHU216HW,2013-05-04 17:54:00,
2013-05-04 10:58:00,74.9,14.7,30.06,SSW,203,6.3,11.2,10,0.00,,,0.00,WUHU216HW,2013-05-04 17:58:00,
2013-05-04 11:03:00,74.9,14.7,30.06,SE,135,5.4,11.2,10,0.00,,,0.00,WUHU216HW,2013-05-04 18:03:00,
2013-05-04 11:08:00,75.1,14.9,30.06,South,180,2.5,7.6,10,0.00,,,0.00,WUHU216HW,2013-05-04 18:08:00,
2013-05-04 11:13:00,75.4,15.1,30.06,SSW,203,12.1,12.1,10,0.00,,,0.00,WUHU216HW,2013-05-04 18:13:00,
2013-05-04 11:18:00,76.3,15.9,30.06,SE,135,7.4,12.1,10,0.00,,,0.00,WUHU216HW,2013-05-04 18:18:00,
2013-05-04 11:24:00,76.9,16.2,30.06,SSE,158,5.1,12.1,8,0.00,,,0.00,WUHU216HW,2013-05-04 18:24:00,
2013-05-04 11:29:00,77.2,16.5,30.06,SSW,203,7.8,10.5,8,0.00,,,0.00,WUHU216HW,2013-05-04 18:29:00,
2013-05-04 11:34:00,77.4,16.7,30.05,WSW,248,2.9,8.3,8,0.00,,,0.00,WUHU216HW,2013-05-04 18:34:00,
2013-05-04 11:39:00,77.0,16.4,30.05,ESE,113,4.0,10.1,8,0.00,,,0.00,WUHU216HW,2013-05-04 18:39:00,
2013-05-04 11:44:00,76.7,16.1,30.06,ENE,68,3.4,10.1,8,0.00,,,0.00,WUHU216HW,2013-05-04 18:44:00,
2013-05-04 11:49:00,76.3,15.9,30.05,NW,315,5.8,9.4,8,0.00,,,0.00,WUHU216HW,2013-05-04 18:49:00,
2013-05-04 11:54:00,76.1,15.7,30.05,South,180,2.0,9.4,8,0.00,,,0.00,WUHU216HW,2013-05-04 18:54:00,
2013-05-04 11:59:00,76.7,16.1,30.05,West,270,6.3,10.7,9,0.00,,,0.00,WUHU216HW,2013-05-04 18:59:00,
2013-05-04 12:04:00,76.0,15.5,30.05,SW,225,7.2,10.7,8,0.00,,,0.00,WUHU216HW,2013-05-04 19:04:00,
2013-05-04 12:09:00,76.0,15.5,30.04,South,180,6.5,10.5,10,0.00,,,0.00,WUHU216HW,2013-05-04 19:09:00,
2013-05-04 12:14:00,76.5,15.9,30.05,NW,315,3.1,9.6,10,0.00,,,0.00,WUHU216HW,2013-05-04 19:14:00,
2013-05-04 12:19:00,76.3,15.9,30.04,SSE,158,4.5,11.0,10,0.00,,,0.00,WUHU216HW,2013-05-04 19:19:00,
2013-05-04 12:24:00,76.9,16.2,30.05,South,180,6.3,11.9,8,0.00,,,0.00,WUHU216HW,2013-05-04 19:24:00,
2013-05-04 12:29:00,77.2,16.5,30.05,SSW,203,6.7,13.6,10,0.00,,,0.00,WUHU216HW,2013-05-04 19:29:00,
2013-05-04 12:34:00,76.9,16.2,30.04,SSW,203,8.1,13.6,10,0.00,,,0.00,WUHU216HW,2013-05-04 19:34:00,
2013-05-04 12:39:00,77.0,16.4,30.04,SSW,203,5.4,11.0,8,0.00,,,0.00,WUHU216HW,2013-05-04 19:39:00,
2013-05-04 12:44:00,77.0,16.4,30.04,SW,225,8.9,10.1,8,0.00,,,0.00,WUHU216HW,2013-05-04 19:44:00,
2013-05-04 12:49:00,77.0,16.4,30.04,West,270,5.6,11.4,8,0.00,,,0.00,WUHU216HW,2013-05-04 19:49:00,
2013-05-04 12:54:00,76.5,15.9,30.04,South,180,7.6,11.4,8,0.00,,,0.00,WUHU216HW,2013-05-04 19:54:00,
2013-05-04 12:59:00,76.7,16.1,30.04,WSW,248,7.4,10.5,9,0.00,,,0.00,WUHU216HW,2013-05-04 19:59:00,
2013-05-04 13:04:00,76.9,16.2,30.04,South,180,12.1,12.1,9,0.00,,,0.00,WUHU216HW,2013-05-04 20:04:00,
2013-05-04 13:09:00,77.0,16.4,30.04,South,180,4.7,12.1,8,0.00,,,0.00,WUHU216HW,2013-05-04 20:09:00,
2013-05-04 13:14:00,77.0,16.4,30.04,SW,225,6.0,11.9,9,0.00,,,0.00,WUHU216HW,2013-05-04 20:14:00,
2013-05-04 13:19:00,76.7,16.1,30.05,SW,225,10.5,11.2,8,0.00,,,0.00,WUHU216HW,2013-05-04 20:19:00,
2013-05-04 13:24:00,76.7,16.1,30.04,SW,225,2.9,11.6,9,0.00,,,0.00,WUHU216HW,2013-05-04 20:24:00,
2013-05-04 13:29:00,76.9,16.2,30.04,SSW,203,6.7,12.5,8,0.00,,,0.00,WUHU216HW,2013-05-04 20:29:00,
2013-05-04 13:34:00,76.7,16.1,30.04,SW,225,5.8,12.5,8,0.00,,,0.00,WUHU216HW,2013-05-04 20:34:00,
2013-05-04 13:39:00,76.5,15.9,30.04,South,180,5.4,9.8,8,0.00,,,0.00,WUHU216HW,2013-05-04 20:39:00,
2013-05-04 13:44:00,76.5,15.9,30.04,West,270,13.6,14.3,8,0.00,,,0.00,WUHU216HW,2013-05-04 20:44:00,
2013-05-04 13:49:00,76.3,15.9,30.04,South,180,5.6,14.3,8,0.00,,,0.00,WUHU216HW,2013-05-04 20:49:00,
2013-05-04 13:54:00,76.1,15.7,30.04,South,180,10.5,14.1,10,0.00,,,0.00,WUHU216HW,2013-05-04 20:54:00,
2013-05-04 13:59:00,76.1,15.7,30.03,SSW,203,5.4,11.6,9,0.00,,,0.00,WUHU216HW,2013-05-04 20:59:00,
2013-05-04 14:04:00,76.1,15.7,30.04,WSW,248,4.7,16.1,8,0.00,,,0.00,WUHU216HW,2013-05-04 21:04:00,
2013-05-04 14:09:00,76.0,15.5,30.04,SSW,203,7.2,16.1,10,0.00,,,0.00,WUHU216HW,2013-05-04 21:09:00,
2013-05-04 14:14:00,76.0,15.5,30.03,WNW,293,3.6,12.5,10,0.00,,,0.00,WUHU216HW,2013-05-04 21:14:00,
2013-05-04 14:19:00,75.8,15.4,30.03,SE,135,4.0,8.7,10,0.00,,,0.00,WUHU216HW,2013-05-04 21:19:00,
2013-05-04 14:24:00,76.0,15.5,30.03,South,180,2.2,8.7,10,0.00,,,0.00,WUHU216HW,2013-05-04 21:24:00,
2013-05-04 14:29:00,76.0,15.5,30.03,West,270,4.7,11.4,10,0.00,,,0.00,WUHU216HW,2013-05-04 21:29:00,
2013-05-04 14:34:00,75.8,15.4,30.03,West,270,7.2,11.4,10,0.00,,,0.00,WUHU216HW,2013-05-04 21:34:00,
2013-05-04 14:39:00,75.2,14.9,30.03,West,270,8.7,14.3,10,0.00,,,0.00,WUHU216HW,2013-05-04 21:39:00,
2013-05-04 14:44:00,74.5,14.4,30.03,West,270,6.3,14.3,10,0.00,,,0.00,WUHU216HW,2013-05-04 21:44:00,
2013-05-04 14:49:00,74.5,14.4,30.03,SW,225,10.7,11.4,10,0.00,,,0.00,WUHU216HW,2013-05-04 21:49:00,
2013-05-04 14:54:00,74.7,14.6,30.03,West,270,3.6,11.4,10,0.00,,,0.00,WUHU216HW,2013-05-04 21:54:00,
2013-05-04 14:59:00,74.5,14.4,30.03,West,270,8.1,10.7,10,0.00,,,0.00,WUHU216HW,2013-05-04 21:59:00,
2013-05-04 15:04:00,74.3,14.3,30.03,WSW,248,8.3,12.5,10,0.00,,,0.00,WUHU216HW,2013-05-04 22:04:00,
2013-05-04 15:09:00,74.0,14.0,30.03,South,180,10.1,12.5,10,0.00,,,0.00,WUHU216HW,2013-05-04 22:09:00,
2013-05-04 15:14:00,73.3,13.5,30.03,SSE,158,7.4,12.3,10,0.00,,,0.00,WUHU216HW,2013-05-04 22:14:00,
2013-05-04 15:19:00,73.1,13.4,30.02,South,180,2.5,10.3,10,0.00,,,0.00,WUHU216HW,2013-05-04 22:19:00,
2013-05-04 15:24:00,73.3,15.2,30.02,South,180,5.4,8.5,11,0.00,,,0.00,WUHU216HW,2013-05-04 22:24:00,
2013-05-04 15:29:00,73.3,15.2,30.02,West,270,8.1,9.8,11,0.00,,,0.00,WUHU216HW,2013-05-04 22:29:00,
2013-05-04 15:34:00,73.1,15.0,30.02,West,270,6.0,14.3,11,0.00,,,0.00,WUHU216HW,2013-05-04 22:34:00,
2013-05-04 15:39:00,73.1,15.0,30.02,WNW,293,14.3,14.3,11,0.00,,,0.00,WUHU216HW,2013-05-04 22:39:00,
2013-05-04 15:44:00,72.7,14.8,30.02,WSW,248,6.0,14.3,11,0.00,,,0.00,WUHU216HW,2013-05-04 22:44:00,
2013-05-04 15:49:00,72.7,14.8,30.02,South,180,2.5,14.3,11,0.00,,,0.00,WUHU216HW,2013-05-04 22:49:00,
2013-05-04 15:54:00,72.7,14.8,30.01,SW,225,4.7,12.8,11,0.00,,,0.00,WUHU216HW,2013-05-04 22:54:00,
2013-05-04 15:59:00,72.7,14.8,30.01,SW,225,5.4,12.8,11,0.00,,,0.00,WUHU216HW,2013-05-04 22:59:00,
2013-05-04 16:04:00,73.1,15.0,30.02,NW,315,6.7,12.8,11,0.00,,,0.00,WUHU216HW,2013-05-04 23:04:00,
2013-05-04 16:09:00,72.7,14.8,30.01,SSE,158,6.9,12.8,11,0.00,,,0.00,WUHU216HW,2013-05-04 23:09:00,
2013-05-04 16:14:00,72.7,14.8,30.01,SSW,203,6.7,8.9,11,0.00,,,0.00,WUHU216HW,2013-05-04 23:14:00,
2013-05-04 16:19:00,72.5,16.2,30.02,SSE,158,10.7,14.5,12,0.00,,,0.00,WUHU216HW,2013-05-04 23:19:00,
2013-05-04 16:24:00,72.4,14.4,30.02,West,270,6.3,14.5,11,0.00,,,0.00,WUHU216HW,2013-05-04 23:24:00,
2013-05-04 16:29:00,72.0,15.8,30.02,WSW,248,4.0,12.8,12,0.00,,,0.00,WUHU216HW,2013-05-04 23:29:00,
2013-05-04 16:34:00,72.0,15.8,30.01,SW,225,9.6,12.8,12,0.00,,,0.00,WUHU216HW,2013-05-04 23:34:00,
2013-05-04 16:39:00,71.8,14.1,30.02,WSW,248,8.5,11.9,11,0.00,,,0.00,WUHU216HW,2013-05-04 23:39:00,
2013-05-04 16:44:00,71.6,13.9,30.02,West,270,5.6,11.6,11,0.00,,,0.00,WUHU216HW,2013-05-04 23:44:00,
2013-05-04 16:49:00,71.3,13.6,30.02,WSW,248,6.3,11.9,11,0.00,,,0.00,WUHU216HW,2013-05-04 23:49:00,
2013-05-04 16:54:00,71.1,15.0,30.02,WSW,248,3.4,11.9,12,0.00,,,0.00,WUHU216HW,2013-05-04 23:54:00,
2013-05-04 16:59:00,70.9,13.3,30.02,SSW,203,6.3,11.4,11,0.00,,,0.00,WUHU216HW,2013-05-04 23:59:00,
2013-05-04 17:04:00,70.6,13.0,30.02,SW,225,3.4,14.8,11,0.00,,,0.00,WUHU216HW,2013-05-05 00:04:00,
2013-05-04 17:09:00,70.0,12.6,30.02,South,180,3.8,14.8,11,0.00,,,0.00,WUHU216HW,2013-05-05 00:09:00,
2013-05-04 17:14:00,69.7,12.3,30.02,WSW,248,4.0,14.5,11,0.00,,,0.00,WUHU216HW,2013-05-05 00:14:00,
2013-05-04 17:19:00,69.5,12.2,30.02,SSW,203,2.7,11.4,11,0.00,,,0.00,WUHU216HW,2013-05-05 00:19:00,
2013-05-04 17:24:00,69.3,12.1,30.02,South,180,9.2,11.0,11,0.00,,,0.00,WUHU216HW,2013-05-05 00:24:00,
2013-05-04 17:29:00,69.1,11.9,30.02,SW,225,5.1,9.8,11,0.00,,,0.00,WUHU216HW,2013-05-05 00:29:00,
2013-05-04 17:34:00,68.6,11.5,30.02,South,180,4.9,12.8,11,0.00,,,0.00,WUHU216HW,2013-05-05 00:34:00,
2013-05-04 17:39:00,68.2,11.3,30.02,SW,225,2.5,12.8,11,0.00,,,0.00,WUHU216HW,2013-05-05 00:39:00,
2013-05-04 17:44:00,68.0,11.2,30.02,SSW,203,5.4,8.5,11,0.00,,,0.00,WUHU216HW,2013-05-05 00:44:00,
2013-05-04 17:49:00,67.7,10.9,30.02,SW,225,7.8,11.4,11,0.00,,,0.00,WUHU216HW,2013-05-05 00:49:00,
2013-05-04 17:54:00,67.3,10.5,30.02,South,180,6.3,11.4,11,0.00,,,0.00,WUHU216HW,2013-05-05 00:54:00,
2013-05-04 17:59:00,67.0,10.3,30.02,WSW,248,4.0,11.6,11,0.00,,,0.00,WUHU216HW,2013-05-05 00:59:00,
2013-05-04 18:04:00,66.6,10.0,30.02,SSW,203,9.6,11.6,11,0.00,,,0.00,WUHU216HW,2013-05-05 01:04:00,
2013-05-04 18:09:00,66.4,9.8,30.02,South,180,6.5,9.8,11,0.00,,,0.00,WUHU216HW,2013-05-05 01:09:00,
2013-05-04 18:14:00,66.1,9.5,30.02,SSE,158,11.9,11.9,11,0.00,,,0.00,WUHU216HW,2013-05-05 01:14:00,
2013-05-04 18:19:00,65.7,9.3,30.02,South,180,6.3,11.9,11,0.00,,,0.00,WUHU216HW,2013-05-05 01:19:00,
2013-05-04 18:24:00,65.2,8.8,30.02,SSW,203,6.3,11.9,11,0.00,,,0.00,WUHU216HW,2013-05-05 01:24:00,
2013-05-04 18:29:00,64.8,8.6,30.02,SSW,203,1.8,9.8,11,0.00,,,0.00,WUHU216HW,2013-05-05 01:29:00,
2013-05-04 18:34:00,64.4,8.3,30.02,WSW,248,3.4,9.8,11,0.00,,,0.00,WUHU216HW,2013-05-05 01:34:00,
2013-05-04 18:39:00,64.1,8.0,30.02,SW,225,9.4,9.4,11,0.00,,,0.00,WUHU216HW,2013-05-05 01:39:00,
2013-05-04 18:44:00,63.5,7.7,30.02,SW,225,10.3,16.3,11,0.00,,,0.00,WUHU216HW,2013-05-05 01:44:00,
2013-05-04 18:49:00,63.0,7.2,30.03,SW,225,2.5,16.3,11,0.00,,,0.00,WUHU216HW,2013-05-05 01:49:00,
2013-05-04 18:54:00,62.8,7.1,30.03,South,180,2.5,11.2,11,0.00,,,0.00,WUHU216HW,2013-05-05 01:54:00,
2013-05-04 18:59:00,62.5,6.9,30.03,SSW,203,3.8,10.1,11,0.00,,,0.00,WUHU216HW,2013-05-05 01:59:00,
2013-05-04 19:04:00,62.3,8.3,30.03,SW,225,4.7,10.1,12,0.00,,,0.00,WUHU216HW,2013-05-05 02:04:00,
2013-05-04 19:09:00,61.7,7.8,30.03,SSW,203,6.0,8.1,12,0.00,,,0.00,WUHU216HW,2013-05-05 02:09:00,
2013-05-04 19:14:00,61.4,7.6,30.03,SW,225,2.0,7.6,12,0.00,,,0.00,WUHU216HW,2013-05-05 02:14:00,
2013-05-04 19:19:00,61.0,7.2,30.03,SSW,203,6.9,7.6,12,0.00,,,0.00,WUHU216HW,2013-05-05 02:19:00,
2013-05-04 19:24:00,60.8,7.1,30.03,South,180,6.9,8.5,12,0.00,,,0.00,WUHU216HW,2013-05-05 02:24:00,
2013-05-04 19:29:00,60.5,6.9,30.03,South,180,4.7,8.5,12,0.00,,,0.00,WUHU216HW,2013-05-05 02:29:00,
2013-05-04 19:34:00,60.1,8.1,30.03,SW,225,6.7,7.2,13,0.00,,,0.00,WUHU216HW,2013-05-05 02:34:00,
2013-05-04 19:39:00,59.8,7.7,30.03,SW,225,3.4,6.7,13,0.00,,,0.00,WUHU216HW,2013-05-05 02:39:00,
2013-05-04 19:44:00,59.4,7.5,30.03,SW,225,4.0,7.2,13,0.00,,,0.00,WUHU216HW,2013-05-05 02:44:00,
2013-05-04 19:49:00,59.2,7.3,30.04,SSE,158,4.0,7.2,13,0.00,,,0.00,WUHU216HW,2013-05-05 02:49:00,
2013-05-04 19:54:00,59.0,7.2,30.04,SSW,203,4.0,5.8,13,0.00,,,0.00,WUHU216HW,2013-05-05 02:54:00,
2013-05-04 19:59:00,58.7,6.8,30.04,SW,225,2.9,6.3,13,0.00,,,0.00,WUHU216HW,2013-05-05 02:59:00,
2013-05-04 20:04:00,58.3,6.6,30.04,West,270,1.8,6.3,13,0.00,,,0.00,WUHU216HW,2013-05-05 03:04:00,
2013-05-04 20:09:00,58.0,9.4,30.04,WSW,248,2.9,5.8,15,0.00,,,0.00,WUHU216HW,2013-05-05 03:09:00,
2013-05-04 20:14:00,57.6,9.1,30.04,SSE,158,3.4,5.8,15,0.00,,,0.00,WUHU216HW,2013-05-05 03:14:00,
2013-05-04 20:19:00,57.4,9.0,30.04,SSW,203,2.0,6.5,15,0.00,,,0.00,WUHU216HW,2013-05-05 03:19:00,
2013-05-04 20:24:00,57.2,8.8,30.04,WSW,248,3.1,7.4,15,0.00,,,0.00,WUHU216HW,2013-05-05 03:24:00,
2013-05-04 20:29:00,56.9,8.6,30.04,SW,225,4.0,7.4,15,0.00,,,0.00,WUHU216HW,2013-05-05 03:29:00,
2013-05-04 20:34:00,56.7,8.4,30.04,SW,225,3.4,6.0,15,0.00,,,0.00,WUHU216HW,2013-05-05 03:34:00,
2013-05-04 20:39:00,56.5,9.8,30.04,WSW,248,1.8,4.0,16,0.00,,,0.00,WUHU216HW,2013-05-05 03:39:00,
2013-05-04 20:44:00,56.3,9.7,30.05,WNW,293,4.7,4.7,16,0.00,,,0.00,WUHU216HW,2013-05-05 03:44:00,
2013-05-04 20:49:00,56.2,9.5,30.05,SW,225,1.8,4.7,16,0.00,,,0.00,WUHU216HW,2013-05-05 03:49:00,
2013-05-04 20:54:00,55.8,9.3,30.05,WSW,248,1.8,4.3,16,0.00,,,0.00,WUHU216HW,2013-05-05 03:54:00,
2013-05-04 20:59:00,55.6,9.2,30.05,SSW,203,2.2,4.7,16,0.00,,,0.00,WUHU216HW,2013-05-05 03:59:00,
2013-05-04 21:01:00,55.6,9.2,30.05,West,270,2.0,4.7,16,0.00,,,0.00,WUHU216HW,2013-05-05 04:01:00,
2013-05-04 21:06:00,55.3,8.8,30.05,SW,225,1.3,4.7,16,0.00,,,0.00,WUHU216HW,2013-05-05 04:06:00,
2013-05-04 21:11:00,55.1,10.3,30.05,SSW,203,0.9,4.3,17,0.00,,,0.00,WUHU216HW,2013-05-05 04:11:00,
2013-05-04 21:16:00,54.9,10.1,30.05,SW,225,2.2,4.5,17,0.00,,,0.00,WUHU216HW,2013-05-05 04:16:00,
2013-05-04 21:21:00,54.7,9.9,30.05,WSW,248,0.4,4.5,17,0.00,,,0.00,WUHU216HW,2013-05-05 04:21:00,
2013-05-04 21:26:00,54.4,8.1,30.05,WSW,248,1.6,3.1,16,0.00,,,0.00,WUHU216HW,2013-05-05 04:26:00,
2013-05-04 21:31:00,54.2,7.9,30.05,SW,225,1.8,3.4,16,0.00,,,0.00,WUHU216HW,2013-05-05 04:31:00,
2013-05-04 21:36:00,54.0,7.7,30.05,SW,225,1.6,3.4,16,0.00,,,0.00,WUHU216HW,2013-05-05 04:36:00,
2013-05-04 21:41:00,53.8,9.1,30.06,SW,225,0.9,3.4,17,0.00,,,0.00,WUHU216HW,2013-05-05 04:41:00,
2013-05-04 21:46:00,53.6,9.0,30.06,SW,225,1.6,3.1,17,0.00,,,0.00,WUHU216HW,2013-05-05 04:46:00,
2013-05-04 21:51:00,53.5,8.8,30.06,WSW,248,1.6,2.9,17,0.00,,,0.00,WUHU216HW,2013-05-05 04:51:00,
2013-05-04 21:56:00,53.1,8.6,30.06,WSW,248,1.1,3.4,17,0.00,,,0.00,WUHU216HW,2013-05-05 04:56:00,
2013-05-04 22:01:00,52.9,8.4,30.05,SSW,203,1.8,3.8,17,0.00,,,0.00,WUHU216HW,2013-05-05 05:01:00,
2013-05-04 22:06:00,52.9,8.4,30.06,WNW,293,1.3,3.8,17,0.00,,,0.00,WUHU216HW,2013-05-05 05:06:00,
2013-05-04 22:11:00,52.7,9.7,30.05,WSW,248,0.9,2.7,18,0.00,,,0.00,WUHU216HW,2013-05-05 05:11:00,
2013-05-04 22:16:00,52.6,9.6,30.06,West,270,3.4,3.6,18,0.00,,,0.00,WUHU216HW,2013-05-05 05:16:00,
2013-05-04 22:21:00,52.6,9.6,30.05,WSW,248,2.2,4.5,18,0.00,,,0.00,WUHU216HW,2013-05-05 05:21:00,
2013-05-04 22:26:00,52.4,9.5,30.06,SW,225,2.0,4.5,18,0.00,,,0.00,WUHU216HW,2013-05-05 05:26:00,
2013-05-04 22:31:00,52.2,9.4,30.05,SSW,203,2.0,4.3,18,0.00,,,0.00,WUHU216HW,2013-05-05 05:31:00,
2013-05-04 22:36:00,52.2,9.4,30.06,South,180,2.2,3.6,18,0.00,,,0.00,WUHU216HW,2013-05-05 05:36:00,
2013-05-04 22:41:00,52.2,9.4,30.05,WSW,248,3.4,4.5,18,0.00,,,0.00,WUHU216HW,2013-05-05 05:41:00,
2013-05-04 22:46:00,52.0,9.2,30.05,West,270,3.4,4.7,18,0.00,,,0.00,WUHU216HW,2013-05-05 05:46:00,
2013-05-04 22:51:00,52.0,10.7,30.06,West,270,3.1,4.7,19,0.00,,,0.00,WUHU216HW,2013-05-05 05:51:00,
2013-05-04 22:56:00,52.0,12.3,30.05,West,270,4.3,4.7,20,0.00,,,0.00,WUHU216HW,2013-05-05 05:56:00,
2013-05-04 23:01:00,52.0,12.3,30.06,SW,225,1.8,4.7,20,0.00,,,0.00,WUHU216HW,2013-05-05 06:01:00,
2013-05-04 23:06:00,51.8,12.1,30.06,WSW,248,3.1,4.9,20,0.00,,,0.00,WUHU216HW,2013-05-05 06:06:00,
2013-05-04 23:11:00,51.8,12.1,30.05,WSW,248,2.0,4.9,20,0.00,,,0.00,WUHU216HW,2013-05-05 06:11:00,
2013-05-04 23:16:00,51.8,12.1,30.05,WSW,248,5.1,5.6,20,0.00,,,0.00,WUHU216HW,2013-05-05 06:16:00,
2013-05-04 23:21:00,51.7,11.9,30.05,West,270,2.9,5.6,20,0.00,,,0.00,WUHU216HW,2013-05-05 06:21:00,
2013-05-04 23:26:00,51.7,11.9,30.05,West,270,3.8,4.5,20,0.00,,,0.00,WUHU216HW,2013-05-05 06:26:00,
2013-05-04 23:31:00,51.7,11.9,30.05,SW,225,3.1,4.5,20,0.00,,,0.00,WUHU216HW,2013-05-05 06:31:00,
2013-05-04 23:36:00,51.5,11.8,30.05,WSW,248,4.0,4.0,20,0.00,,,0.00,WUHU216HW,2013-05-05 06:36:00,
2013-05-04 23:41:00,51.5,11.8,30.05,SW,225,4.7,5.4,20,0.00,,,0.00,WUHU216HW,2013-05-05 06:41:00,
2013-05-04 23:46:00,51.3,12.6,30.05,WSW,248,3.1,5.4,21,0.00,,,0.00,WUHU216HW,2013-05-05 06:46:00,
2013-05-04 23:51:00,51.3,12.6,30.05,WSW,248,3.4,4.7,21,0.00,,,0.00,WUHU216HW,2013-05-05 06:51:00,
2013-05-04 23:56:00,51.3,12.6,30.06,SSW,203,1.1,4.7,21,0.00,,,0.00,WUHU216HW,2013-05-05 06:56:00,